User: anonymous   Login
Location: Stoke Bliss
(52.2667°N, 2.5167°W)
Time: 11:33:16
(UTC+00:00)
Language:

Cosmos 2219 Rocket - Orbit

View from above orbital plane
View from above orbital plane
View from above satellite
View from above satellite

Ground track
Ground track

The orbit data is extracted from the following two-line orbital elements,

1 22220U 92076B   21133.87674219  .00000191  00000-0  11993-3 0  9993
2 22220  70.9995 296.0157 0014978 260.1763 251.7132 14.16468610472790
Epoch (UTC): 13 May 2021 21:02:30
Eccentricity: 0.0014978
inclination: 70.9995°
perigee height: 826 km
apogee height: 848 km
right ascension of ascending node: 296.0157°
argument of perigee: 260.1763°
revolutions per day: 14.16468610
mean anomaly at epoch: 251.7132°
orbit number at epoch: 47279

The dashed part of the orbit path shows where the satellite is in the earth's shadow,  

DLR